Regional Weather Roundup
Issued by NWS

Home | Current Version | Previous Version | Graphics & Text | Print | Product List | Glossary Off
Versions: 1 2 3 4 5 6 7 8 9 10 11 12 13 14 15 16 17 18 19 20 21 22 23 24 25 26 27 28 29 30 31 32 33 34 35 36 37 38 39 40 41 42 43 44 45 46 47 48 49 50

000
ASUS43 KTOP 220808
RWRKS

WEATHER ROUNDUP FOR KANSAS
NATIONAL WEATHER SERVICE GOODLAND KS
300 AM CDT FRI MAY 22 2015

NOTE:  "FAIR" INDICATES FEW OR NO CLOUDS BELOW 12,000 FEET WITH NO
SIGNIFICANT WEATHER AND/OR OBSTRUCTIONS TO VISIBILITY.

KSZ001>006-013>018-027>032-041>047-220900-
NORTHWEST KANSAS

CITY           SKY/WX    TMP DP  RH WIND       PRES   REMARKS
GOODLAND       CLOUDY    48  46  93 SE9       30.15F
HAYS           CLOUDY    50  41  71 CALM      30.21R
HILL CITY      CLOUDY    48  44  86 CALM      30.20F
RUSSELL        CLOUDY    50  46  86 SE7       30.19F
$$

KSZ061>065-074>080-084>089-220900-
SOUTHWEST KANSAS

CITY           SKY/WX    TMP DP  RH WIND       PRES   REMARKS
DODGE CITY     HVY RAIN  50  47  89 SE12      30.19F FOG
ELKHART          N/A     49  45  87 S12         N/A
GARDEN CITY    RAIN      49  48  97 SE9       30.16F
GREAT BEND     CLOUDY    52  45  76 SE5       30.22R
LIBERAL        CLOUDY    52  45  76 SE13      30.17R
PRATT          CLOUDY    52  45  76 S3        30.23R
$$

KSZ066>073-081>083-090>101-220900-
SOUTHEAST KANSAS

CITY           SKY/WX    TMP DP  RH WIND       PRES   REMARKS
CHANUTE        CLEAR     47  45  93 CALM      30.21F
COFFEYVILLE    CLEAR     48  46  93 CALM      30.21S
HUTCHINSON     CLOUDY    49  44  83 CALM      30.21R
MEDICINE LODGE   N/A     52  49  89 E3        30.19F
NEWTON         PTCLDY    48  43  81 CALM      30.23R
PARSONS        CLEAR     48  47  96 CALM      30.22F
WICHITA INTL   MOCLDY    53  46  77 SE5       30.20R
WICHITA JABRA  PTCLDY    49  46  90 CALM      30.20S
WICHITA MCCONL PTCLDY    52  46  80 E6        30.20S
WINFIELD       PTCLDY    50  47  89 E3        30.20F
$$

KSZ007>012-019>026-033>040-048>060-102>105-220900-
NORTHEAST KANSAS

CITY           SKY/WX    TMP DP  RH WIND       PRES   REMARKS
CONCORDIA      PTCLDY    46  43  89 SE3       30.21F
EMPORIA        PTCLDY    45  44  97 E5        30.20F
LAWRENCE       CLEAR     47  45  93 CALM      30.22F
MANHATTAN      CLEAR     45  45 100 CALM      30.20F
MARYSVILLE     PTCLDY    46  45  93 CALM      30.21S
OLATHE IND     PTCLDY    50  45  83 CALM      30.22F
OLATHE EXE     PTCLDY    53  44  71 W3        30.21F
SALINA         MOCLDY    52  44  74 CALM      30.22S
TOPEKA BILLARD CLEAR     50  48  93 CALM      30.21F
TOPEKA FORBES  CLEAR     48  44  86 CALM      30.21F
$$



USA.gov is the U.S. government's official web portal to all federal, state and local government web resources and services.